Regional Weather Roundup
Issued by NWS Grand Forks, ND

Home | Current Version | Previous Version | Graphics & Text | Print | Product List | Glossary On
Versions: 1 2 3 4 5 6 7 8 9 10 11 12 13 14 15 16 17 18 19 20 21 22 23 24 25 26 27 28 29 30 31 32 33 34 35 36 37 38 39 40 41 42 43 44 45 46 47 48 49 50
000
ASUS43 KFGF 241210
RWRFGF
PRAIRIE TO PINES  WEATHER ROUNDUP
NATIONAL WEATHER SERVICE EASTERN NORTH DAKOTA/GRAND FORKS ND
700 AM CDT FRI APR 24 2015

 **SATELLITE DATA USED TO AUGMENT SKY COVER AT AUTOMATED STATIONS**
 *****  WEATHER ACROSS EASTERN NORTH DAKOTA  *****

CITY           SKY/WX    TMP DP  RH WIND       PRES   REMARKS
GRAND FORKS    MOCLDY    40  32  73 E13       29.81F
6HR MIN TEMP:  39; 6HR MAX TEMP:  42; 6HR PCP:  0.01;

GRAND FRKS AFB PTCLDY    38  31  77 E12       29.81F
GRAND FRKS NWS   N/A     37 N/A N/A E14         N/A
DEVILS LAKE    PTCLDY    36  27  69 E15       29.76S
6HR MIN TEMP:  34; 6HR MAX TEMP:  39;

FARGO          LGT RAIN  42  35  76 SE20G29   29.76F
WAHPETON ARPT  CLOUDY    39  32  75 E16G24    29.76F
$$

 ***** WEATHER ACROSS CENTRAL AND WESTERN NORTH DAKOTA  *****

CITY           SKY/WX    TMP DP  RH WIND       PRES   REMARKS
BISMARCK       CLEAR     33  27  78 NE9       29.67S
6HR MIN TEMP:  32; 6HR MAX TEMP:  41;

MINOT          CLEAR     31  24  75 E7        29.72S WCI  24
6HR MIN TEMP:  31; 6HR MAX TEMP:  39;

JAMESTOWN      CLEAR     37  30  75 E14       29.70S
6HR MIN TEMP:  36; 6HR MAX TEMP:  39; 6HR PCP:  0.09;

MINOT AFB      CLEAR     29  23  79 E7        29.72S WCI  21
GARRISON         N/A     34  26  72 E6        29.69R
WILLISTON      CLEAR     31  23  72 NE3       29.68S
6HR MIN TEMP:  30; 6HR MAX TEMP:  38;

DICKINSON      CLEAR     30  21  69 NE5       29.62S
6HR MIN TEMP:  27; 6HR MAX TEMP:  40;

HETTINGER      CLEAR     27  22  81 W3        29.64R
6HR MIN TEMP:  26; 6HR MAX TEMP:  45;

$$

 *****  OTHER AIRPORT OBSERVATIONS IN OUR AREA  *****

CITY           SKY/WX    TMP DP  RH WIND       PRES   REMARKS
WALHALLA       CLOUDY    39  25  56 SE8       29.84F
GRAFTON AIRPOR PTSUNNY   39  30  70 E12       29.85S
VALLEY CITY AR CLOUDY    39  32  75 SE18G29   29.72F
CANDO          FAIR      32  27  80 E12       29.78S WCI  23
CAVALIER APRT  CLOUDY    39  27  60 SE5       29.85S
GWINNER        SUNNY     39  34  81 E14       29.71S
SHEYENNE NWR     N/A     40  33  75 SE14      29.95S
ROLLA          FAIR      32  25  74 SE12      29.78F WCI  23
 ***** THE ABOVE OBSERVATIONS ARE NON NWS ARE NOT QUALITY
       CONTROLLED AND MAY MIS-REPORT RAIN FOR SNOW...
$$

  *****  WEATHER ACROSS NORTHERN MINNESOTA  *****

CITY           SKY/WX    TMP DP  RH WIND       PRES   REMARKS
FLAG ISLAND    MOCLDY    36  19  51 SE6       29.92F
WARROAD        CLOUDY    36  21  55 SE6       29.91S
ROSEAU         CLOUDY    37  21  52 E7        29.89F
HALLOCK        CLOUDY    41  25  52 SE13      29.85S
THF RVR FALLS  CLOUDY    39  27  60 E15       29.86F
6HR MIN TEMP:  37; 6HR MAX TEMP:  41;

BAUDETTE       CLOUDY    34  17  50 E12       29.92F
6HR MIN TEMP:  30; 6HR MAX TEMP:  34;

WASKISH        CLOUDY    36  18  48 CALM      29.92F
CROOKSTON      CLOUDY    39  32  75 SE15      29.84S
$$
  *****  WEATHER ACROSS CENTRAL AND WEST MINNESOTA  *****

CITY           SKY/WX    TMP DP  RH WIND       PRES   REMARKS
FOSSTON        CLOUDY    36  30  80 E10       29.86S
BEMIDJI        CLOUDY    38  28  66 SE9       29.90S
PARK RAPIDS    LGT RAIN  40  30  67 SE12      29.87F
6HR MIN TEMP:  37; 6HR MAX TEMP:  43; 6HR PCP:  0.01;

ELBOW LAKE     LGT RAIN  38  31  78 SE16      29.81R
6HR MIN TEMP:  38; 6HR MAX TEMP:  47; 6HR PCP:  0.04;

WADENA         LGT SNOW  36  34  93 E16G22    29.86F
DETROIT LAKES  DRIZZLE   39  32  75 SE15      29.85R
MOORHEAD       RAIN      41  32  70 SE18G26   29.77F
FERGUS FALLS   CLOUDY    41  30  65 SE14      29.81R
MORRIS MN      CLOUDY    41  34  75 E18       29.81S
STAPLES        RAIN      36  34  93 E7        29.90F
$$
  *****  WEATHER ELSEWHERE ACROSS MINNESOTA  *****

CITY           SKY/WX    TMP DP  RH WIND       PRES   REMARKS
DULUTH         MOCLDY    36  16  44 E9        29.98R
6HR MIN TEMP:  36; 6HR MAX TEMP:  38;

INTRNTL FALLS  CLOUDY    31  19  61 E7        29.96F WCI  24
6HR MIN TEMP:  21; 6HR MAX TEMP:  31;

ELY            CLOUDY    27  21  80 CALM      29.99F
CLOQUET        CLOUDY    36  18  48 E5        29.98S
WHEATON        LGT RAIN  39  34  81 E21G28    29.77F
BRAINERD       CLOUDY    40  24  53 S5        29.94F
6HR MIN TEMP:  38; 6HR MAX TEMP:  42;

HIBBING        CLOUDY    34  16  47 SE5       29.97S
6HR MIN TEMP:  30; 6HR MAX TEMP:  35;

ALEXANDRIA     LGT RAIN  39  25  57 E18       29.83F
6HR MIN TEMP:  38; 6HR MAX TEMP:  45; 6HR PCP:  0.01;

SAINT CLOUD    CLOUDY    43  15  32 NE7       29.91R
6HR MIN TEMP:  42; 6HR MAX TEMP:  45;

MINNEAPOLIS    CLOUDY    44  19  36 E13       29.92S
6HR MIN TEMP:  42; 6HR MAX TEMP:  44;

$$

  *****  WEATHER ACROSS SOUTH DAKOTA  *****

CITY           SKY/WX    TMP DP  RH WIND       PRES   REMARKS
SIOUX FALLS    CLOUDY    49  40  71 SE10      29.72F
6HR MIN TEMP:  49; 6HR MAX TEMP:  55; 6HR PCP:  0.01;

BROOKINGS      MOCLDY    50  36  57 S20G25    29.71F
WATERTOWN      MOCLDY    49  34  56 S12       29.67F
6HR MIN TEMP:  48; 6HR MAX TEMP:  51; 6HR PCP:  0.04;

HURON          CLOUDY    52  35  52 S18       29.62F
6HR MIN TEMP:  52; 6HR MAX TEMP:  54;

SISSETON         N/A     41  36  82 S7        29.72F
ABERDEEN       PTCLDY    46  36  68 SE6       29.63F
6HR MIN TEMP:  42; 6HR MAX TEMP:  54; 6HR PCP:  0.12;

MITCHELL       CLOUDY    53  39  59 S17       29.65S
PIERRE         CLOUDY    50  42  74 S8        29.55F
6HR MIN TEMP:  49; 6HR MAX TEMP:  58;

MOBRIDGE       CLEAR     45  35  68 E12       29.56R
RAPID CITY     MOCLDY    44  38  79 N8        29.60R
6HR MIN TEMP:  41; 6HR MAX TEMP:  52;

$$

  *****  SOME WEATHER IN NEARBY STATES *****

CITY           SKY/WX    TMP DP  RH WIND       PRES   REMARKS
GLASGOW MT     PTCLDY    33  30  88 E7        29.62R
6HR MIN TEMP:  33; 6HR MAX TEMP:  41;

GREAT FALLS MT CLOUDY    46  27  47 CALM      29.62S
6HR MIN TEMP:  42; 6HR MAX TEMP:  50;

CHEYENNE WY    CLEAR     40  29  64 W9        29.74S
6HR MIN TEMP:  39; 6HR MAX TEMP:  47;

SCOTTSBLUFF NE PTCLDY    40  32  73 NE3       29.68R
6HR MIN TEMP:  40; 6HR MAX TEMP:  57;

OMAHA NE       CLOUDY    57  38  48 S14       29.77F
6HR MIN TEMP:  55; 6HR MAX TEMP:  57; 6HR PCP: TRACE;

DES MOINES IA  CLOUDY    53  27  36 SE16G24   29.88F
6HR MIN TEMP:  53; 6HR MAX TEMP:  54; 6HR PCP: TRACE;

DAVENPORT IA   CLOUDY    44  22  41 SE7       30.05R
6HR MIN TEMP:  32; 6HR MAX TEMP:  44;

CHICAGO IL     MOSUNNY   35  25  66 SW3       30.08R
6HR MIN TEMP:  29; 6HR MAX TEMP:  38;

EAU CLAIRE WI  MOCLDY    31  25  78 CALM      29.99S
6HR MIN TEMP:  25; 6HR MAX TEMP:  31;

LA CROSSE WI   FAIR      34  23  64 SE8       30.00S
6HR MIN TEMP:  32; 6HR MAX TEMP:  37;

$$

  *****  SOME NATIONAL WEATHER *****

CITY           SKY/WX    TMP DP  RH WIND       PRES   REMARKS
LA GUARDIA NY  PTSUNNY   39  22  50 NW20G29   29.88R
6HR MIN TEMP:  39; 6HR MAX TEMP:  41;

RALEIGH NC     MOSUNNY   47  30  51 CALM      30.07R
6HR MIN TEMP:  38; 6HR MAX TEMP:  52;

ATLANTA GA     MOSUNNY   52  34  50 N9        30.08R
6HR MIN TEMP:  48; 6HR MAX TEMP:  55;

NEW ORLEANS LA CLOUDY    71  65  81 E9        29.96S
6HR MIN TEMP:  71; 6HR MAX TEMP:  74;

OKLAHOMA CITY  FOG       62  60  93 S16       29.81R VSB 1/2
6HR MIN TEMP:  62; 6HR MAX TEMP:  62; 6HR PCP: TRACE;

ALBUQUERQUE NM LGT RAIN  52  35  52 W12       29.89R
6HR MIN TEMP:  52; 6HR MAX TEMP:  59; 6HR PCP: TRACE;

SALT LAKE CITY MOCLDY    52  36  54 SE8       29.71S
6HR MIN TEMP:  49; 6HR MAX TEMP:  55;

LOS ANGELES CA CLOUDY    59  51  75 CALM      29.93S
6HR MIN TEMP:  58; 6HR MAX TEMP:  59;



USA.gov is the U.S. government's official web portal to all federal, state and local government web resources and services.